When you browse on this site, cookies collect data to enhance your experience and personalize the content and advertising you see.
Visit our Privacy Policy to learn more. By continuing to use the site, you agree to this use of cookies and data.
  • In Sweden
  • List of Countries
  • For 7 days
  • Water Temperature
  • Weather Map
  • Weather Widgets
  • user-avatar
    Login

    Hourly Weather Igls

    Today, 29 May, Friday

    Time Temperature Precipitation Wind Pressure Humidity
    00:00 +6°C° 0.2 mm 1 mps 689 mmHg 94%
    01:00 +6°C° 0 mm 1 mps 690 mmHg 94%
    02:00 +6°C° 0.1 mm 1 mps 689 mmHg 94%
    03:00 +5°C° 0.1 mm 1 mps 689 mmHg 94%
    04:00 +4°C° 0.1 mm 1 mps 689 mmHg 94%
    05:00 +6°C° 0 mm 1 mps 689 mmHg 90%
    06:00 +7°C° 0 mm 1 mps 689 mmHg 86%
    07:00 +10°C° 0 mm 1 mps 689 mmHg 82%
    08:00 +11°C° 0 mm 1 mps 689 mmHg 74%
    09:00 +12°C° 0 mm 1 mps 689 mmHg 66%
    10:00 +13°C° 0 mm 2 mps 689 mmHg 58%
    11:00 +14°C° 0 mm 2 mps 688 mmHg 57%
    12:00 +14°C° 0 mm 2 mps 688 mmHg 55%
    13:00 +15°C° 0 mm 2 mps 688 mmHg 54%
    14:00 +15°C° 0 mm 2 mps 688 mmHg 55%
    15:00 +15°C° 0 mm 2 mps 687 mmHg 57%
    16:00 +15°C° 0 mm 2 mps 687 mmHg 58%
    17:00 +14°C° 0 mm 2 mps 686 mmHg 64%
    18:00 +13°C° 0 mm 2 mps 686 mmHg 71%
    19:00 +12°C° 0 mm 2 mps 686 mmHg 78%
    20:00 +10°C° 0 mm 1 mps 686 mmHg 84%
    21:00 +9°C° 0 mm 1 mps 686 mmHg 90%
    22:00 +6°C° 0 mm 0 mps 686 mmHg 96%
    23:00 +6°C° 0 mm 0 mps 686 mmHg 95%

    Tomorrow, 30 May, Saturday

    Time Temperature Precipitation Wind Pressure Humidity
    00:00 +7°C° 0 mm 1 mps 686 mmHg 95%
    01:00 +6°C° 0 mm 1 mps 686 mmHg 94%
    02:00 +5°C° 0 mm 0 mps 686 mmHg 94%
    03:00 +5°C° 0 mm 0 mps 685 mmHg 93%
    04:00 +4°C° 0 mm 0 mps 685 mmHg 93%
    05:00 +7°C° 0 mm 1 mps 685 mmHg 90%
    06:00 +9°C° 0 mm 1 mps 686 mmHg 86%
    07:00 +10°C° 0 mm 1 mps 686 mmHg 83%
    08:00 +11°C° 0 mm 1 mps 686 mmHg 78%
    09:00 +12°C° 0 mm 2 mps 685 mmHg 72%
    10:00 +13°C° 0 mm 2 mps 685 mmHg 67%
    11:00 +14°C° 0 mm 2 mps 685 mmHg 63%
    12:00 +15°C° 0 mm 2 mps 685 mmHg 59%
    13:00 +15°C° 0 mm 2 mps 685 mmHg 55%
    14:00 +15°C° 0 mm 2 mps 685 mmHg 58%
    15:00 +14°C° 0 mm 3 mps 685 mmHg 60%
    16:00 +13°C° 0 mm 3 mps 684 mmHg 62%
    17:00 +13°C° 0.1 mm 2 mps 684 mmHg 70%
    18:00 +12°C° 0.1 mm 2 mps 684 mmHg 77%
    19:00 +10°C° 0.1 mm 2 mps 684 mmHg 84%
    20:00 +10°C° 0.1 mm 1 mps 685 mmHg 89%
    21:00 +9°C° 0.1 mm 1 mps 685 mmHg 93%
    22:00 +8°C° 0.1 mm 1 mps 685 mmHg 98%
    23:00 +8°C° 0 mm 1 mps 685 mmHg 97%

    Day after tomorrow, 31 May, Sunday

    Time Temperature Precipitation Wind Pressure Humidity
    00:00 +8°C° 0 mm 1 mps 685 mmHg 97%
    01:00 +7°C° 0 mm 0 mps 685 mmHg 97%
    02:00 +6°C° 0 mm 0 mps 685 mmHg 97%
    03:00 +6°C° 0 mm 0 mps 685 mmHg 96%
    04:00 +5°C° 0 mm 0 mps 685 mmHg 96%
    05:00 +8°C° 0 mm 1 mps 685 mmHg 92%
    06:00 +9°C° 0 mm 1 mps 685 mmHg 87%
    07:00 +10°C° 0 mm 1 mps 685 mmHg 83%
    08:00 +11°C° 0 mm 1 mps 685 mmHg 78%
    09:00 +12°C° 0 mm 1 mps 685 mmHg 73%
    10:00 +13°C° 0 mm 2 mps 685 mmHg 67%
    11:00 +14°C° 0 mm 2 mps 685 mmHg 65%
    12:00 +14°C° 0 mm 2 mps 685 mmHg 62%
    13:00 +15°C° 0 mm 2 mps 685 mmHg 59%
    14:00 +15°C° 0 mm 2 mps 685 mmHg 56%
    15:00 +14°C° 0 mm 3 mps 685 mmHg 54%
    16:00 +16°C° 0 mm 3 mps 685 mmHg 51%
    17:00 +14°C° 0 mm 3 mps 685 mmHg 59%
    18:00 +13°C° 0 mm 2 mps 685 mmHg 66%
    19:00 +12°C° 0 mm 2 mps 685 mmHg 73%
    20:00 +10°C° 0 mm 2 mps 685 mmHg 81%
    21:00 +9°C° 0 mm 1 mps 686 mmHg 88%
    22:00 +8°C° 0 mm 1 mps 686 mmHg 95%
    23:00 +7°C° 0 mm 1 mps 686 mmHg 95%

    1 June, Monday

    Time Temperature Precipitation Wind Pressure Humidity
    00:00 +7°C° 0 mm 1 mps 685 mmHg 95%
    01:00 +7°C° 0 mm 1 mps 685 mmHg 94%
    02:00 +6°C° 0 mm 1 mps 685 mmHg 93%
    03:00 +6°C° 0 mm 1 mps 685 mmHg 92%
    04:00 +6°C° 0 mm 1 mps 684 mmHg 91%
    05:00 +8°C° 0 mm 1 mps 685 mmHg 84%
    06:00 +11°C° 0 mm 1 mps 685 mmHg 77%
    07:00 +13°C° 0 mm 1 mps 686 mmHg 70%
    08:00 +15°C° 0 mm 1 mps 686 mmHg 64%
    09:00 +18°C° 0 mm 1 mps 686 mmHg 57%
    10:00 +19°C° 0 mm 2 mps 687 mmHg 51%
    11:00 +19°C° 0 mm 2 mps 687 mmHg 50%
    12:00 +20°C° 0 mm 2 mps 686 mmHg 48%
    13:00 +21°C° 0 mm 2 mps 686 mmHg 46%
    14:00 +21°C° 0 mm 2 mps 686 mmHg 48%
    15:00 +21°C° 0 mm 2 mps 686 mmHg 49%
    16:00 +21°C° 0 mm 2 mps 686 mmHg 51%
    17:00 +20°C° 0 mm 2 mps 686 mmHg 60%
    18:00 +18°C° 0 mm 2 mps 686 mmHg 68%
    19:00 +17°C° 0 mm 2 mps 686 mmHg 77%
    20:00 +15°C° 0 mm 1 mps 686 mmHg 83%
    21:00 +13°C° 0 mm 1 mps 686 mmHg 90%
    22:00 +11°C° 0 mm 1 mps 686 mmHg 96%
    23:00 +10°C° 0 mm 1 mps 685 mmHg 96%

    2 June, Tuesday

    Time Temperature Precipitation Wind Pressure Humidity
    00:00 +10°C° 0 mm 1 mps 685 mmHg 95%
    01:00 +10°C° 0 mm 1 mps 685 mmHg 95%
    02:00 +9°C° 0 mm 1 mps 685 mmHg 95%
    03:00 +9°C° 0 mm 1 mps 684 mmHg 94%
    04:00 +9°C° 0 mm 1 mps 684 mmHg 94%
    05:00 +10°C° 0 mm 0 mps 685 mmHg 88%
    06:00 +13°C° 0 mm 0 mps 685 mmHg 81%
    07:00 +15°C° 0 mm 0 mps 685 mmHg 75%
    08:00 +19°C° 0 mm 1 mps 685 mmHg 64%
    09:00 +21°C° 0 mm 1 mps 686 mmHg 54%
    10:00 +23°C° 0 mm 2 mps 686 mmHg 44%
    11:00 +23°C° 0 mm 2 mps 685 mmHg 42%
    12:00 +24°C° 0 mm 2 mps 685 mmHg 41%
    13:00 +24°C° 0 mm 2 mps 685 mmHg 39%
    14:00 +24°C° 0.2 mm 2 mps 684 mmHg 44%
    15:00 +23°C° 0.2 mm 2 mps 684 mmHg 48%
    16:00 +23°C° 0.2 mm 2 mps 683 mmHg 53%
    17:00 +21°C° 0.5 mm 1 mps 683 mmHg 63%
    18:00 +19°C° 0.5 mm 1 mps 682 mmHg 73%
    19:00 +16°C° 0.5 mm 0 mps 682 mmHg 83%
    20:00 +16°C° 0.3 mm 1 mps 682 mmHg 85%
    21:00 +14°C° 0.3 mm 1 mps 682 mmHg 86%
    22:00 +13°C° 0.3 mm 1 mps 681 mmHg 88%
    23:00 +13°C° 0.1 mm 1 mps 681 mmHg 88%

    3 June, Wednesday

    Time Temperature Precipitation Wind Pressure Humidity
    00:00 +13°C° 0.1 mm 2 mps 681 mmHg 89%
    01:00 +13°C° 0.1 mm 2 mps 680 mmHg 89%
    02:00 +13°C° 0 mm 2 mps 680 mmHg 90%
    03:00 +13°C° 0 mm 2 mps 680 mmHg 91%
    04:00 +13°C° 0 mm 2 mps 679 mmHg 92%
    05:00 +14°C° 0 mm 2 mps 679 mmHg 89%
    06:00 +15°C° 0 mm 2 mps 679 mmHg 87%
    07:00 +16°C° 0 mm 2 mps 679 mmHg 84%
    08:00 +17°C° 0.1 mm 2 mps 679 mmHg 76%
    09:00 +19°C° 0.1 mm 2 mps 680 mmHg 68%
    10:00 +22°C° 0.1 mm 1 mps 680 mmHg 60%
    11:00 +21°C° 0.6 mm 2 mps 679 mmHg 62%
    12:00 +21°C° 0.6 mm 2 mps 679 mmHg 63%
    13:00 +21°C° 0.6 mm 2 mps 679 mmHg 65%
    14:00 +20°C° 0.8 mm 2 mps 678 mmHg 70%
    15:00 +19°C° 0.8 mm 2 mps 678 mmHg 75%
    16:00 +18°C° 0.8 mm 2 mps 678 mmHg 81%
    17:00 +17°C° 0.9 mm 2 mps 678 mmHg 84%
    18:00 +16°C° 0.9 mm 2 mps 677 mmHg 87%
    19:00 +15°C° 0.9 mm 2 mps 677 mmHg 90%
    20:00 +15°C° 0.4 mm 1 mps 677 mmHg 91%
    21:00 +14°C° 0.4 mm 1 mps 678 mmHg 92%
    22:00 +14°C° 0.4 mm 1 mps 678 mmHg 93%
    23:00 +13°C° 0 mm 2 mps 677 mmHg 93%
    Show more